Change the Weather History Date:

Friday, August 30, 2013

  Actual Average Record
Temperature  
Mean Temperature 72 °F -  
Max Temperature 75 °F - - ()
Min Temperature 69 °F - - ()
Cooling Degree Days 7    
Growing Degree Days 22 (Base 50)    
Moisture  
Dew Point 62 °F    
Average Humidity 72    
Maximum Humidity 83    
Minimum Humidity 56    
Precipitation  
Precipitation 0.00 in - - ()
Sea Level Pressure  
Sea Level Pressure 30.12 in    
Wind  
Wind Speed 18 mph ()    
Max Wind Speed 22 mph    
Max Gust Speed -    
T = Trace of Precipitation, MM = Missing Value Source: Averaged Metar Reports

Daily Weather History Graph

Daily Weather History Graph

Search for Another Location

Airport or City:

Trip Planner

Search our weather history database for the weather conditions in past years. The results will help you decide how hot, cold, wet, or windy it might be!

Date:

Astronomy

Aug. 30, 2013 Rise Set
Actual Time 6:14 AM AEST 5:55 PM AEST
Civil Twilight 5:52 AM AEST 6:17 PM AEST
Nautical Twilight 5:26 AM AEST 6:43 PM AEST
Astronomical Twilight 5:01 AM AEST 7:08 PM AEST
Moon 1:20 AM AEST 12:40 PM AEST
Length of Visible Light 12h 24m
Length of Day
11h 40m
Waning Crescent, 34% of the Moon is Illuminated
Aug 30
Waning Crescent
Sep 5
New
Sep 13
First Quarter
Sep 19
Full
Sep 27
Last Quarter

Hourly Weather History & Observations

Time (AEST) Temp. Dew Point Humidity Pressure Visibility Wind Dir Wind Speed Gust Speed Precip Events Conditions
12:00 AM 71 °F 60 °F 61% 30.14 in - ESE 21.9 mph - -  
12:00 AM 71.6 °F 60.8 °F 69% 30.12 in - ESE 21.9 mph - N/A   Unknown
12:30 AM 69.8 °F 60.8 °F 73% 30.12 in - ESE 18.4 mph - N/A   Unknown
1:00 AM 69.8 °F 62.6 °F 78% 30.12 in - ESE 20.7 mph - N/A   Unknown
1:30 AM 69.8 °F 60.8 °F 73% 30.12 in - SE 20.7 mph - N/A   Unknown
2:00 AM 69.8 °F 59.0 °F 68% 30.12 in - ESE 21.9 mph - N/A   Unknown
2:30 AM 69.8 °F 59.0 °F 68% 30.12 in - ESE 16.1 mph - N/A   Unknown
3:00 AM 70 °F 62 °F 70% 30.11 in - SE 18.4 mph - -  
3:00 AM 69.8 °F 62.6 °F 78% 30.09 in - SE 18.4 mph - N/A   Unknown
3:30 AM 69.8 °F 62.6 °F 78% 30.09 in - SE 20.7 mph - N/A   Unknown
4:00 AM 69.8 °F 62.6 °F 78% 30.09 in - SE 17.3 mph - N/A   Unknown
4:30 AM 69.8 °F 60.8 °F 73% 30.09 in - SE 19.6 mph - N/A   Unknown
5:00 AM 69.8 °F 60.8 °F 73% 30.09 in - ESE 19.6 mph - N/A   Unknown
5:30 AM 69.8 °F 60.8 °F 73% 30.12 in - SE 19.6 mph - N/A   Unknown
6:00 AM 69.8 °F 60.8 °F 73% 30.12 in - SE 18.4 mph - N/A   Unknown
6:30 AM 69.8 °F 60.8 °F 73% 30.15 in - SE 18.4 mph - N/A   Unknown
7:00 AM 69.8 °F 62.6 °F 78% 30.15 in - SE 18.4 mph - N/A   Unknown
7:30 AM 71.6 °F 60.8 °F 69% 30.15 in - SE 19.6 mph - N/A   Unknown
8:00 AM 73.4 °F 62.6 °F 69% 30.15 in - ESE 19.6 mph - N/A   Unknown
8:30 AM 73.4 °F 60.8 °F 65% 30.15 in - ESE 17.3 mph - N/A   Unknown
9:00 AM 74 °F 62 °F 56% 30.18 in - ESE 17.3 mph - -  
9:00 AM 73.4 °F 60.8 °F 65% 30.18 in - ESE 17.3 mph - N/A   Unknown
9:30 AM 73.4 °F 62.6 °F 69% 30.18 in - ESE 17.3 mph - N/A   Unknown
10:00 AM 75.2 °F 62.6 °F 65% 30.18 in - ESE 17.3 mph - N/A   Unknown
10:30 AM 75.2 °F 60.8 °F 61% 30.15 in - ESE 18.4 mph - N/A   Unknown
11:00 AM 75.2 °F 62.6 °F 65% 30.15 in - ESE 19.6 mph - N/A   Unknown
11:30 AM 75.2 °F 62.6 °F 65% 30.15 in - ESE 18.4 mph - N/A   Unknown
12:00 PM 75.2 °F 62.6 °F 65% 30.12 in - ESE 18.4 mph - N/A   Unknown
12:30 PM 75.2 °F 62.6 °F 65% 30.12 in - SE 17.3 mph - N/A   Unknown
1:00 PM 75.2 °F 64.4 °F 69% 30.09 in - SE 17.3 mph - N/A   Unknown
1:30 PM 73.4 °F 62.6 °F 69% 30.09 in - SSE 19.6 mph - N/A   Unknown
2:00 PM 73.4 °F 64.4 °F 73% 30.09 in - SE 20.7 mph - N/A   Unknown
2:30 PM 75.2 °F 62.6 °F 65% 30.06 in - SE 19.6 mph - N/A   Unknown
3:00 PM 73.4 °F 64.4 °F 73% 30.06 in - SE 18.4 mph - N/A   Unknown
3:30 PM 73.4 °F 64.4 °F 73% 30.06 in - ESE 18.4 mph - N/A   Unknown
4:00 PM 71.6 °F 62.6 °F 73% 30.06 in - ESE 19.6 mph - N/A   Unknown
4:30 PM 71.6 °F 64.4 °F 78% 30.06 in - ESE 19.6 mph - N/A   Unknown
5:00 PM 71.6 °F 64.4 °F 78% 30.09 in - ESE 19.6 mph - N/A   Unknown
5:30 PM 69.8 °F 62.6 °F 78% 30.09 in - ESE 18.4 mph - N/A   Unknown
6:00 PM 70 °F 64 °F 75% 30.12 in - ESE 18.4 mph - -  
6:00 PM 69.8 °F 64.4 °F 83% 30.09 in - ESE 18.4 mph - N/A   Unknown
6:30 PM 69.8 °F 62.6 °F 78% 30.12 in - ESE 18.4 mph - N/A   Unknown
7:00 PM 69.8 °F 62.6 °F 78% 30.12 in - ESE 18.4 mph - N/A   Unknown
7:30 PM 69.8 °F 64.4 °F 83% 30.12 in - ESE 19.6 mph - N/A   Unknown
8:00 PM 69.8 °F 62.6 °F 78% 30.15 in - ESE 19.6 mph - N/A   Unknown
8:30 PM 69.8 °F 64.4 °F 83% 30.15 in - ESE 18.4 mph - N/A   Unknown
9:00 PM 70 °F 63 °F 73% 30.16 in - ESE 20.7 mph - -  
9:00 PM 69.8 °F 62.6 °F 78% 30.15 in - ESE 20.7 mph - N/A   Unknown
9:30 PM 69.8 °F 62.6 °F 78% 30.15 in - ESE 17.3 mph - N/A   Unknown
10:00 PM 69.8 °F 62.6 °F 78% 30.15 in - ESE 19.6 mph - N/A   Unknown
10:30 PM 69.8 °F 60.8 °F 73% 30.15 in - ESE 19.6 mph - N/A   Unknown
11:00 PM 69.8 °F 62.6 °F 78% 30.15 in - ESE 18.4 mph - N/A   Unknown